Home   Weather   Tiraspol   Past weeks
Flag for Moldova

Past Weather in Tiraspol, Moldova — Yesterday and Last 2 Weeks

Now
72 °F

Sunny.


Feels Like: 72 °F
Forecast: 87 / 67 °F
Wind: 6 mph from North

Location: Chisinau International Airport

Current Time: Jun 25, 2019 at 6:50:49 am

Latest Report: Jun 25, 2019 at 6:00 am


Visibility: 10 mi

Pressure: 30.12 "Hg

Humidity: 78%

Dew Point: 64 °F

Location of TiraspolLocation

Past Weather in Tiraspol — Graph

°F

Tiraspol Temperature Yesterday

Maximum temperature yesterday: 88 °F (at 2:00 pm)
Minimum temperature yesterday: 68 °F (at 4:30 am)
Average temperature yesterday: 77 °F

High & Low Weather Summary for the Past Weeks

 TemperatureHumidityPressure
High93 °F (Jun 22, 2:00 pm)100% (Jun 10, 5:00 am)30.09 "Hg (Jun 10, 5:00 am)
Low64 °F (Jun 10, 5:00 am)30% (Jun 22, 3:30 pm)29.86 "Hg (Jun 20, 4:30 pm)
Average78 °F64%29.98 "Hg
* Reported Jun 10 5:00 am — Jun 25 5:30 am, Tiraspol. Weather by CustomWeather, © 2019

Note: Actual official high and low records may vary slightly from our data, if they occured in-between our weather recording intervals... More about our weather records

Advertising

Tiraspol Weather History for the Previous 24 Hours

Scroll right to see more
 ConditionsComfort  
Time TempWeatherWind HumidityBarometerVisibility
5:30 am
Tue, Jun 25
72 °FSunny.10 mph78%30.09 "Hg10 mi
5:00 am72 °FClear.12 mph78%30.09 "Hg10 mi
4:30 am72 °FClear.10 mph78%30.09 "Hg10 mi
4:00 am72 °FClear.10 mph78%30.09 "Hg10 mi
3:30 am73 °FClear.12 mph74%30.09 "Hg10 mi
3:00 am73 °FClear.10 mph74%30.09 "Hg10 mi
2:30 am73 °FClear.12 mph74%30.09 "Hg10 mi
2:00 am73 °FClear.10 mph74%30.09 "Hg10 mi
1:30 am73 °FClear.9 mph74%30.09 "Hg10 mi
1:00 am73 °FClear.9 mph74%30.09 "Hg10 mi
12:30 am75 °FClear.10 mph65%30.09 "Hg10 mi
12:00 am75 °FClear.12 mph69%30.09 "Hg10 mi
11:30 pm
Mon, Jun 24
75 °FClear.10 mph69%30.09 "Hg10 mi
11:00 pm75 °FClear.9 mph69%30.09 "Hg10 mi
10:30 pm75 °FClear.9 mph69%30.09 "Hg10 mi
10:00 pm77 °FClear.8 mph65%30.09 "Hg10 mi
9:30 pm77 °FClear.7 mph61%30.09 "Hg10 mi
9:00 pm77 °FSunny.6 mph61%30.09 "Hg10 mi
8:30 pm79 °FPassing clouds.5 mph54%30.07 "HgN/A
8:00 pm79 °FSunny.5 mph54%30.07 "Hg10 mi
7:30 pm81 °FPassing clouds.6 mph51%30.07 "HgN/A
7:00 pm81 °FPassing clouds.6 mph51%30.07 "HgN/A
6:30 pm81 °FSunny.12 mph51%30.07 "Hg10 mi
6:00 pm82 °FPassing clouds.13 mph45%30.07 "HgN/A
5:30 pm84 °FPassing clouds.16 mph45%30.07 "HgN/A
5:00 pm86 °FPassing clouds.14 mph40%30.04 "HgN/A
4:30 pm86 °FPassing clouds.10 mph43%30.04 "HgN/A
4:00 pm84 °FScattered clouds.8 mph45%30.04 "HgN/A
3:30 pm86 °FBroken clouds.9 mph46%30.04 "HgN/A
3:00 pm86 °FPartly sunny.14 mph46%30.04 "HgN/A
2:30 pm88 °FThundershowers. Scattered clouds.12 mph46%30.04 "HgN/A
2:00 pm88 °FPassing clouds.12 mph46%30.04 "HgN/A
1:30 pm86 °FPassing clouds.12 mph46%30.04 "HgN/A
1:00 pm86 °FPassing clouds.9 mph46%30.04 "HgN/A
12:30 pm82 °FSunny.8 mph51%30.04 "Hg10 mi
12:00 pm82 °FSunny.8 mph51%30.04 "Hg10 mi
11:30 am81 °FSunny.8 mph58%30.04 "Hg10 mi
11:00 am81 °FSunny.7 mph58%30.04 "Hg10 mi
10:30 am81 °FPassing clouds.7 mph58%30.04 "HgN/A
10:00 am81 °FPassing clouds.7 mph62%30.01 "HgN/A
9:30 am77 °FPassing clouds.8 mph65%30.01 "HgN/A
9:00 am75 °FPassing clouds.7 mph69%30.01 "HgN/A
8:30 am73 °FSunny.7 mph74%30.01 "Hg10 mi
8:00 am73 °FPassing clouds.7 mph74%30.01 "HgN/A
7:30 am72 °FPassing clouds.6 mph78%30.01 "HgN/A
7:00 am72 °FSunny.7 mph78%30.01 "Hg10 mi
6:30 am70 °FPassing clouds.6 mph83%30.01 "HgN/A
6:00 am68 °FPassing clouds.3 mph88%29.98 "HgN/A
Weather by CustomWeather, © 2019

See weather overview